Temperature
17 17 17 18 18 18 18 18 18 18 18 18 18 18 18 18 18 18 18 18 18 18 18 18 18 18 18 18 18 18 18 18 18 18 18 18 18 18 18 18 18 18 18
17 17 17 17 17 18 18 18 18 17 17 17 17 17 17 17 17 17 17 17 17 17 17 18 18 18 18 18 18 18 18 18 18 18 18 18 18 18 18 18 18 18 18
17 17 17 17 17 17 17 17 17 17 17 17 17 17 17 17 17 17 17 17 17 17 17 17 17 17 17 17 17 17 18 18 17 18 18 18 18 18 18 18 18 18 18
17 17 17 17 17 17 17 17 17 17 17 17 17 17 17 16 16 16 16 16 17 17 17 17 17 17 17 17 17 17 17 17 17 17 17 18 18 18 18 18 18 18 18
17 17 17 17 17 17 17 17 17 17 17 16 16 16 16 16 16 16 16 16 16 16 16 16 17 17 17 17 17 17 17 17 17 17 17 17 17 17 17 17 17 17 18
17 17 17 17 17 17 17 17 16 16 16 16 16 16 16 16 16 16 16 15 15 16 16 16 16 16 16 16 16 17 17 17 17 17 17 17 17 17 17 17 17 17 18
17 17 17 17 17 16 16 16 16 16 16 16 16 15 15 15 15 15 15 15 15 15 15 16 16 16 16 16 16 16 17 17 17 17 17 17 17 17 17 17 17 17 17
17 17 17 16 16 16 16 16 16 16 15 15 15 15 15 15 15 15 15 15 15 15 15 15 16 16 16 16 16 16 16 16 17 17 17 17 17 17 17 17 17 17 17
17 17 16 16 16 16 16 16 16 16 15 15 15 15 15 15 15 15 15 15 15 15 15 15 16 16 16 16 16 16 16 16 16 17 17 17 17 17 17 17 17 17 17
17 17 16 16 16 16 16 16 16 15 15 15 15 15 15 15 15 15 15 15 15 15 15 15 15 16 16 16 16 16 16 16 16 16 17 17 16 17 17 17 17 17 17
17 17 16 16 16 16 16 16 16 16 15 15 15 15 15 15 15 15 15 15 15 15 15 15 15 15 16 16 16 16 16 16 16 16 16 16 16 17 17 17 17 17 17
17 17 17 16 16 16 16 16 16 15 15 15 15 15 15 15 15 15 15 15 15 15 15 15 15 15 16 16 16 16 16 16 16 16 16 16 16 16 17 17 17 17 17
17 17 17 16 16 16 16 16 16 16 15 15 15 15 15 15 15 15 15 15 15 15 15 15 15 15 16 16 16 16 16 16 16 16 16 16 16 16 16 16 17 17 17
17 17 17 17 16 16 16 16 16 16 16 16 15 15 15 15 15 15 15 15 15 15 15 15 15 16 16 16 16 16 16 16 16 16 16 16 16 16 16 16 16 17 17
18 17 17 17 17 16 16 16 16 16 16 16 15 15 15 15 15 15 15 15 15 15 15 15 15 15 15 16 16 16 16 16 16 16 16 16 16 16 16 16 16 16 17
18 17 17 17 17 17 16 16 16 16 16 16 15 15 15 15 15 15 15 15 15 15 15 15 15 15 15 15 16 16 16 16 16 16 16 16 16 16 16 16 16 16 16
18 18 17 17 17 17 16 16 16 16 16 15 15 15 15 15 15 15 15 15 15 15 15 15 15 15 15 15 15 15 15 15 15 15 15 16 16 16 16 16 16 16 16
18 18 17 17 17 17 16 16 16 16 16 15 15 15 15 15 15 15 15 15 15 15 15 15 15 15 15 15 15 15 15 15 15 15 15 15 15 15 16 16 16 16 16
18 18 18 17 17 17 16 16 16 16 15 15 15 15 15 15 15 15 15 15 15 15 15 15 15 15 15 15 15 15 15 15 15 15 15 15 15 15 15 16 16 16 16
18 18 18 17 17 17 16 16 16 16 15 15 15 15 15 15 15 15 15 15 15 15 15 15 15 15 15 15 15 15 15 15 15 15 15 15 15 15 15 15 16 16 16
18 18 18 17 17 17 16 16 16 16 15 15 15 15 15 15 15 15 15 15 15 15 15 15 15 15 15 15 15 15 15 15 15 15 15 15 15 15 15 15 15 15 16
18 18 18 18 17 17 17 16 16 16 15 15 15 15 15 15 15 15 15 15 15 15 15 15 15 15 15 15 15 15 15 14 14 14 14 15 15 15 15 15 15 15 15
18 18 18 18 17 17 17 16 16 16 15 15 15 15 15 15 15 15 15 15 15 15 15 15 15 15 15 15 15 15 15 14 14 14 14 14 14 14 15 15 15 15 15
19 18 18 18 17 17 17 16 16 16 16 15 15 15 15 15 15 15 15 15 15 15 15 15 15 15 15 15 15 15 15 15 14 14 14 14 14 14 14 14 14 15 15
19 18 18 18 17 17 17 16 16 16 16 15 15 15 15 15 15 15 15 15 15 15 15 15 15 15 15 15 15 15 15 15 15 14 14 14 14 14 14 14 14 14 15
19 18 18 18 17 17 17 17 16 16 16 16 15 15 15 15 15 15 15 15 15 15 15 15 15 15 15 15 15 15 15 15 15 14 14 14 14 14 14 14 14 14 14
Wind_Speed
1 1 5 8 9 10 10 11 11 12 12 12 12 12 12 12 12 12 11 11 10 10 10 10 10 9 9 9 9 8 8 8 8 7 7 7 7 7 7 7 6 5 5
1 3 7 8 9 10 10 11 11 11 11 11 11 11 12 12 11 11 10 10 10 9 9 9 9 9 8 8 8 8 7 7 7 7 7 6 6 6 7 6 6 5 5
4 5 7 9 9 9 10 10 10 11 11 11 11 11 11 10 10 10 10 9 9 9 8 8 8 8 8 8 7 7 6 6 6 6 6 5 5 6 6 6 6 6 6
5 5 7 9 9 9 10 10 10 11 11 11 10 10 10 9 9 9 8 8 8 8 8 7 7 7 7 7 7 6 6 6 6 6 6 5 4 5 6 6 7 7 7
5 5 6 9 9 9 10 10 10 10 10 10 10 10 9 9 9 8 8 7 7 7 7 7 6 6 6 6 6 5 5 6 6 6 6 5 4 5 6 6 7 7 7
5 5 6 9 9 9 10 10 10 10 10 9 9 9 9 9 8 8 7 6 6 6 6 6 6 6 6 6 6 5 5 6 6 6 5 4 3 4 5 6 6 7 7
4 4 6 8 9 10 10 10 10 10 9 9 9 8 8 8 7 7 6 6 6 6 6 6 6 6 6 6 5 5 5 5 5 4 4 3 3 4 5 6 6 6 6
4 4 5 7 8 9 10 9 9 9 8 8 7 7 6 6 6 6 6 5 5 5 5 5 5 5 5 5 5 4 4 4 4 4 3 3 2 4 5 5 6 6 6
4 5 5 5 6 7 8 8 8 7 7 6 6 5 5 5 5 5 5 5 5 4 4 4 4 4 4 5 4 4 4 4 4 3 3 3 3 4 5 5 6 6 6
3 3 4 5 6 6 6 6 6 6 6 5 5 4 4 5 5 5 6 5 5 5 5 4 4 4 4 4 4 4 4 4 4 3 3 2 3 4 5 5 6 6 7
2 2 2 3 3 4 4 5 6 6 6 6 6 6 5 5 6 6 6 6 5 5 6 5 5 5 6 6 5 5 5 4 4 3 3 2 4 4 5 5 6 7 7
2 1 0 1 1 3 3 5 5 6 6 6 5 5 5 5 6 6 7 7 7 7 7 7 6 7 7 6 6 6 5 5 4 3 3 3 4 5 5 6 6 7 7
3 2 2 1 0 1 2 3 4 5 5 5 5 5 5 6 6 6 7 7 8 7 7 7 7 7 6 5 5 5 5 5 4 4 4 3 4 4 5 6 6 7 8
3 3 2 2 2 1 2 2 3 3 3 4 5 4 4 4 4 5 5 5 6 5 5 5 5 6 6 6 6 5 5 5 4 5 5 5 4 5 5 6 7 7 8
4 3 3 3 3 2 2 1 2 3 3 4 4 5 5 4 3 3 4 5 5 5 5 4 5 5 5 6 6 6 5 6 6 6 6 7 7 6 6 6 7 8 9
4 4 3 3 3 4 2 2 2 3 4 5 5 5 6 5 4 3 4 5 5 5 5 5 4 4 4 5 5 6 6 7 7 7 7 8 8 8 8 7 7 8 9
4 4 4 4 4 4 3 3 4 4 5 5 5 6 6 6 5 5 3 3 4 5 5 5 5 5 4 5 6 6 6 7 7 8 8 8 8 9 10 10 9 10 10
5 5 5 5 6 5 4 4 4 5 6 5 6 7 7 7 7 6 4 3 5 6 5 4 4 4 5 5 5 5 5 6 8 8 8 9 9 9 10 12 12 12 11
6 6 5 6 6 6 5 6 6 6 6 6 6 7 7 7 7 7 4 4 5 5 4 4 4 3 4 4 5 5 6 6 6 7 8 9 9 10 10 11 12 13 12
5 6 7 6 6 6 5 5 4 5 4 6 6 6 6 7 7 7 5 5 6 4 4 4 5 5 4 4 6 6 6 6 6 6 6 7 9 10 11 11 11 10 12
5 6 6 7 6 5 4 4 3 2 2 3 5 6 7 7 7 7 5 5 5 4 4 4 3 6 5 3 4 5 5 6 7 6 6 6 8 9 11 11 11 10 10
6 6 5 7 7 5 4 3 3 3 2 2 3 6 8 7 7 6 5 4 4 4 5 4 3 3 4 4 3 3 3 5 5 6 6 6 6 8 9 10 11 11 10
7 7 7 7 6 5 5 4 4 4 3 3 4 3 5 6 7 7 6 5 4 4 4 3 3 4 3 4 3 3 4 1 2 4 6 6 6 6 6 9 10 10 10
7 6 7 7 6 5 6 6 6 4 2 1 1 2 4 7 7 7 6 6 5 4 4 3 3 3 3 2 3 4 3 3 3 2 3 4 5 6 6 7 8 10 11
7 7 7 7 6 5 5 6 6 4 2 1 2 3 4 5 6 6 6 6 5 4 4 4 4 4 3 2 2 2 3 3 3 3 2 3 4 4 5 6 7 9 10
6 6 7 7 6 5 6 6 6 7 5 4 3 2 2 3 3 5 6 6 5 4 4 4 4 5 4 4 3 2 2 2 2 3 2 1 2 3 4 5 7 8 9
Wind_Direction
353 354 115 109 106 105 107 108 108 109 109 107 106 105 103 101 99 96 93 90 86 83 81 78 77 73 70 66 66 67 65 63 63 68 68 70 67 66 64 63 58 53 65
106 90 116 112 108 106 107 107 107 106 106 105 104 102 101 99 97 95 91 88 85 81 78 75 73 69 67 64 61 61 61 57 59 59 62 64 64 65 64 63 60 61 61
88 92 108 112 110 108 106 103 103 105 104 104 103 101 99 97 96 94 91 87 83 81 78 73 70 67 64 60 56 55 54 51 54 56 56 51 50 60 61 58 60 60 60
99 96 110 112 108 106 103 102 101 103 102 99 98 98 99 98 95 91 88 85 81 78 75 70 64 61 57 52 47 48 48 49 51 54 47 38 36 58 58 57 59 57 57
88 92 111 114 109 107 105 103 100 99 98 97 97 97 97 97 92 88 83 80 76 72 69 66 59 56 52 47 41 44 48 50 53 54 43 36 35 52 60 56 53 51 50
84 90 112 113 112 108 104 102 98 96 96 95 94 93 91 88 85 81 77 73 69 64 61 58 52 49 47 42 37 45 53 55 56 54 45 39 31 46 58 58 50 45 40
94 87 111 115 112 108 105 101 97 95 94 93 89 86 84 81 78 74 69 65 62 58 54 53 47 43 45 43 41 45 57 56 61 55 45 32 26 52 58 54 48 38 30
96 78 88 109 110 106 103 100 97 94 90 86 81 77 74 70 65 61 55 53 52 48 47 48 44 41 40 38 40 45 56 54 57 51 46 26 37 63 61 51 43 36 28
79 68 57 68 83 92 94 93 89 87 83 78 72 65 58 53 45 39 34 34 36 39 37 36 35 37 35 32 35 45 56 65 64 43 44 31 51 63 60 50 42 37 31
68 59 54 54 58 57 60 73 76 74 67 58 50 44 36 27 19 15 13 13 17 22 24 26 26 34 37 36 40 49 63 70 60 45 38 37 64 67 59 47 41 37 34
95 51 53 51 45 39 36 46 47 42 39 38 31 26 26 19 11 6 2 4 9 17 23 32 35 43 48 50 52 56 61 65 62 50 38 65 80 73 60 47 41 35 32
201 229 157 66 34 26 28 37 32 30 30 32 31 29 23 17 13 15 11 15 18 22 30 38 44 49 52 47 49 58 60 63 60 44 35 66 77 74 64 50 44 37 31
199 208 189 184 100 54 30 25 27 29 28 29 32 35 41 37 31 30 28 22 23 29 34 35 46 50 50 49 51 56 61 63 52 39 32 54 67 72 64 53 47 42 36
181 207 198 169 150 123 71 39 37 37 32 32 39 52 62 50 36 29 31 25 29 31 35 41 49 52 50 51 56 59 59 62 55 42 31 41 52 61 59 51 49 48 41
183 202 193 176 162 133 99 57 56 50 53 58 58 60 76 71 46 36 36 37 35 37 42 46 50 51 50 48 56 62 56 52 50 45 31 35 41 48 51 49 49 51 46
185 189 181 163 147 128 116 98 73 66 72 72 67 67 77 82 72 55 45 39 34 36 47 58 59 60 56 56 51 54 53 53 51 47 38 33 38 44 45 45 47 50 48
172 165 157 142 119 119 113 96 85 77 80 70 65 69 75 80 76 68 53 38 31 42 57 64 61 60 60 59 50 46 49 48 50 49 45 41 37 41 42 42 44 46 46
152 150 152 137 123 116 102 93 83 78 76 68 66 67 69 74 78 73 57 37 39 53 59 63 56 62 57 58 54 39 40 43 44 48 49 46 41 39 39 43 46 43 40
153 144 131 123 124 116 103 92 81 73 64 59 61 60 62 67 73 76 61 43 54 59 51 65 57 68 69 66 67 49 39 40 35 45 44 44 44 42 39 40 45 42 38
142 136 127 121 118 113 99 85 70 58 46 47 51 51 58 61 66 73 64 49 57 61 52 59 68 60 65 64 75 61 44 39 38 36 33 42 44 44 42 42 41 38 38
135 137 140 137 137 129 114 104 93 70 32 29 38 46 54 58 62 66 65 53 54 67 66 71 78 68 51 37 73 52 33 39 45 35 29 39 40 40 43 43 40 38 34
160 157 153 153 152 150 131 120 115 109 70 40 30 42 43 52 58 67 66 62 57 70 63 58 73 83 51 36 88 84 40 17 17 25 29 36 31 37 40 40 38 35 35
173 173 170 166 159 154 133 110 88 63 45 32 24 20 21 45 58 64 68 71 64 70 73 62 74 96 94 46 55 116 118 132 8 7 25 31 27 32 28 30 34 32 32
186 175 162 158 158 155 146 140 134 127 118 80 22 23 26 44 53 58 63 66 63 62 65 56 68 88 107 90 56 55 97 138 125 53 5 14 29 35 27 27 27 29 30
176 167 158 150 154 154 151 147 134 127 128 99 64 57 40 33 44 52 61 63 59 56 58 56 60 69 82 107 105 95 79 66 74 112 60 359 14 19 23 24 27 27 28
164 159 151 151 155 154 149 147 149 148 142 125 99 79 48 30 27 42 59 61 61 60 59 61 63 68 71 82 84 91 112 112 108 107 113 53 26 357 9 22 27 23 26
Height
1530 1531 1531 1532 1532 1533 1533 1534 1535 1535 1535 1536 1536 1537 1537 1537 1538 1538 1538 1539 1539 1539 1540 1540 1540 1540 1541 1540 1541 1541 1541 1540 1540 1540 1540 1540 1540 1540 1539 1539 1539 1538 1538
1531 1531 1532 1532 1533 1534 1534 1535 1535 1536 1536 1536 1537 1537 1538 1538 1538 1539 1539 1539 1540 1540 1540 1540 1540 1541 1541 1541 1541 1541 1541 1541 1541 1541 1541 1541 1541 1541 1540 1540 1539 1539 1539
1531 1532 1533 1534 1534 1535 1535 1535 1536 1536 1537 1537 1538 1538 1538 1539 1539 1539 1539 1540 1540 1540 1540 1541 1541 1541 1541 1542 1542 1542 1542 1542 1542 1542 1542 1542 1542 1542 1541 1541 1540 1540 1539
1532 1533 1534 1535 1535 1535 1536 1536 1537 1537 1538 1538 1538 1538 1539 1539 1539 1539 1540 1540 1540 1540 1541 1541 1541 1541 1541 1542 1542 1542 1542 1542 1543 1543 1543 1543 1543 1543 1542 1542 1541 1541 1540
1533 1534 1535 1536 1536 1536 1537 1537 1538 1538 1538 1539 1539 1539 1539 1539 1540 1540 1540 1540 1540 1541 1541 1541 1541 1541 1541 1542 1542 1543 1543 1543 1543 1543 1544 1544 1544 1544 1544 1543 1543 1542 1542
1535 1536 1536 1537 1537 1537 1538 1538 1539 1539 1539 1540 1540 1540 1540 1540 1540 1541 1541 1541 1541 1541 1541 1541 1541 1541 1542 1542 1542 1543 1543 1543 1544 1544 1544 1545 1545 1545 1545 1544 1544 1543 1543
1537 1537 1538 1538 1539 1539 1540 1540 1540 1541 1541 1541 1541 1541 1541 1541 1541 1541 1541 1541 1541 1541 1541 1541 1542 1542 1542 1542 1543 1543 1543 1544 1544 1545 1545 1545 1546 1546 1546 1545 1545 1544 1544
1539 1539 1540 1540 1541 1541 1541 1542 1542 1542 1543 1543 1543 1543 1543 1543 1542 1542 1542 1542 1542 1542 1542 1542 1542 1542 1543 1543 1543 1543 1544 1544 1545 1545 1546 1546 1547 1547 1547 1546 1546 1545 1545
1541 1541 1541 1542 1543 1543 1544 1544 1544 1544 1544 1544 1544 1544 1544 1544 1544 1544 1543 1543 1543 1543 1543 1543 1543 1543 1543 1544 1544 1544 1545 1545 1546 1546 1547 1547 1547 1547 1547 1547 1547 1546 1545
1542 1543 1543 1544 1545 1545 1545 1546 1546 1546 1546 1546 1546 1546 1545 1545 1545 1545 1544 1544 1544 1544 1544 1544 1544 1544 1544 1545 1545 1545 1546 1547 1547 1547 1548 1548 1548 1548 1548 1548 1547 1547 1546
1544 1545 1545 1546 1546 1547 1547 1548 1548 1548 1548 1547 1547 1547 1547 1547 1546 1546 1545 1545 1545 1545 1545 1545 1545 1545 1545 1546 1546 1547 1547 1548 1548 1548 1549 1549 1549 1549 1549 1548 1548 1547 1547
1546 1547 1547 1548 1548 1549 1549 1549 1549 1549 1549 1549 1549 1549 1548 1548 1548 1547 1547 1546 1546 1546 1546 1546 1546 1546 1547 1547 1547 1548 1548 1549 1549 1549 1549 1550 1550 1550 1550 1549 1549 1548 1547
1547 1548 1549 1550 1550 1551 1551 1551 1551 1551 1551 1550 1550 1550 1549 1549 1549 1548 1548 1547 1547 1547 1547 1547 1547 1548 1548 1548 1549 1549 1549 1550 1550 1550 1550 1551 1551 1551 1550 1550 1550 1549 1548
1548 1550 1550 1551 1552 1552 1552 1553 1553 1552 1552 1552 1551 1551 1551 1550 1550 1549 1549 1549 1549 1549 1549 1549 1549 1549 1549 1550 1550 1550 1551 1551 1551 1552 1552 1552 1552 1552 1551 1551 1551 1550 1549
1549 1551 1552 1552 1553 1554 1554 1554 1554 1554 1553 1553 1553 1552 1552 1551 1551 1551 1550 1550 1550 1550 1550 1550 1550 1550 1551 1551 1551 1552 1552 1553 1553 1553 1553 1553 1553 1553 1552 1552 1552 1551 1550
1550 1552 1553 1553 1554 1555 1555 1555 1555 1555 1555 1554 1554 1553 1553 1553 1552 1552 1551 1551 1551 1551 1551 1551 1551 1552 1552 1552 1553 1553 1554 1554 1554 1554 1554 1554 1554 1554 1554 1553 1553 1553 1552
1551 1552 1554 1554 1555 1556 1556 1556 1556 1556 1556 1555 1555 1555 1554 1554 1553 1553 1552 1552 1552 1552 1552 1552 1553 1553 1554 1554 1554 1555 1555 1556 1556 1556 1556 1556 1556 1555 1555 1555 1555 1554 1553
1552 1553 1554 1555 1556 1557 1557 1558 1557 1557 1557 1557 1556 1556 1555 1555 1554 1554 1553 1553 1553 1553 1553 1553 1554 1555 1555 1555 1556 1556 1557 1557 1557 1557 1557 1557 1557 1557 1557 1556 1556 1555 1555
1553 1554 1555 1556 1557 1558 1559 1559 1559 1559 1558 1558 1558 1557 1557 1556 1556 1555 1555 1554 1554 1554 1554 1555 1555 1556 1556 1557 1557 1558 1558 1559 1559 1559 1559 1559 1558 1558 1558 1558 1557 1557 1556
1553 1555 1556 1557 1558 1559 1560 1560 1560 1560 1560 1559 1559 1559 1558 1558 1557 1557 1556 1556 1556 1556 1556 1556 1557 1557 1558 1558 1559 1559 1560 1560 1561 1560 1561 1561 1560 1560 1560 1560 1559 1559 1558
1554 1555 1557 1558 1559 1560 1560 1561 1561 1561 1561 1561 1560 1560 1560 1559 1559 1558 1557 1557 1557 1557 1557 1558 1558 1558 1559 1560 1560 1561 1562 1562 1562 1562 1562 1562 1562 1562 1562 1561 1561 1560 1560
1553 1555 1557 1558 1559 1561 1561 1562 1562 1562 1562 1562 1562 1562 1561 1561 1560 1560 1559 1559 1559 1559 1559 1559 1559 1560 1560 1561 1562 1562 1563 1565 1564 1564 1564 1564 1564 1563 1563 1563 1562 1562 1561
1553 1555 1557 1559 1560 1561 1562 1563 1563 1563 1563 1563 1563 1563 1563 1562 1562 1561 1561 1561 1561 1561 1560 1560 1561 1561 1561 1562 1562 1563 1563 1564 1565 1566 1565 1565 1565 1565 1564 1564 1564 1563 1563
1553 1555 1557 1559 1561 1562 1563 1564 1564 1564 1564 1565 1565 1564 1564 1564 1564 1563 1563 1563 1562 1562 1562 1562 1562 1562 1563 1563 1563 1564 1564 1564 1565 1566 1567 1567 1567 1566 1566 1565 1565 1565 1564
1552 1555 1557 1559 1561 1562 1563 1564 1565 1565 1566 1566 1566 1566 1566 1566 1565 1565 1565 1564 1564 1564 1564 1564 1564 1564 1564 1564 1564 1564 1565 1565 1565 1566 1567 1568 1568 1567 1567 1567 1566 1566 1565
1551 1554 1556 1559 1561 1562 1564 1565 1566 1566 1567 1567 1567 1567 1567 1567 1567 1567 1567 1566 1566 1566 1565 1565 1565 1565 1565 1565 1565 1565 1566 1566 1566 1567 1567 1568 1568 1569 1568 1568 1568 1567 1567